User: anonymous   Login
Location: Nashville
(36.1660°N, 86.7840°W)
Time: 22:11:03
(UTC-05:00)
Language:

ZACube-1 - Orbit

View from above orbital plane
View from above orbital plane
View from above satellite
View from above satellite

Ground track
Ground track

The orbit data is extracted from the following two-line orbital elements,

1 39417U 13066B   23150.84674103  .00003741  00000-0  43469-3 0  9998
2 39417  97.6838 113.1228 0054533 346.5121  13.4633 14.84873476514627
Epoch (UTC): 30 May 2023 20:19:18
Eccentricity: 0.0054533
inclination: 97.6838°
perigee height: 576 km
apogee height: 652 km
right ascension of ascending node: 113.1228°
argument of perigee: 346.5121°
revolutions per day: 14.84873476
mean anomaly at epoch: 13.4633°
orbit number at epoch: 51462

The dashed part of the orbit path shows where the satellite is in the earth's shadow,  

DLR